Weather in Varberg

Sweden     57°07′25″N   12°16′11″E
temp.,
°C
wind,
m/s
gust,
m/s
humid.,
%
clouds,
%
prec.,
mm/h
press.,
hPa
HPBL,
m
11 may, tue
tue1123:00+11sw22100100 5.1 101014
02:00+10nw1199100 5.1 101111
05:00+11e2296100 0.9 101113
08:00+11nw2297100 2.6 101225
11:00+10n3397100 6.6 101363
14:00+11nne5790100 8.8 1011109
17:00+11nne71195100 4.8 1010234
20:00+11n81193100 5.9 1008225
12 may, wed
wed1223:00+11nne71094100 0.0 1006159
02:00+12ene3496100 1.5 100541
05:00+13e4598100 2.4 100347
08:00+13se5797100 3.4 100493
11:00+12sse699595 0.4 1004133
14:00+10ssw579797 0.4 1006159
17:00+10sw4697100 0.4 1007161
20:00+10w4695100 0.4 1008163
13 may, thu
thu1323:00+10nw4694100 0.1 1009221
02:00+10nw45916 0.1 1009126
05:00+9n33905 0.0 100886
08:00+10n348975 0.0 1008107
11:00+11n3388100 0.1 100858
14:00+12n3390100 0.1 100769
17:00+11nw5595100 0.0 100686
20:00+11nw459852 2.4 100566
14 may, fri
fri1423:00+10nw019711 0.0 100511
02:00+10sse229992 0.1 100541
05:00+10e2298100 0.6 100546
08:00+12ene2389100 0.7 100534
11:00+13e3474100 0.1 1005142
14:00+14nw3471100 0.1 1005202
17:00+14n457491 0.7 1004157
20:00+13se338091 2.1 100421
15 may, sat
sat1523:00+10ese4689100 0.4 1005108
02:00+10e2289100 0.9 100543
05:00+9n1492100 1.4 1004249
08:00+10n4591100 2.0 1003324
11:00+10n2290100 0.3 100387
14:00+10wnw339093 0.6 1003160
17:00+10w338930 0.1 1003267
20:00+10ssw3389100 0.1 1002261